Location: Unspecified
(0.0000°N, 0.0000°E)
Time: 18:30:35
(UTC+00:00)

Vanguard 1 Rocket - Pass Details

Date: 20 April 2026
Orbit: 655 x 4212 km, 34.3° (Epoch: 17 May)

Event Time Altitude Azimuth Distance (km) Brightness Sun altitude
Rises 00:57:58 0° 311° (NW) 8,349 12.3 -71.4°
Reaches altitude 10° 01:07:31 10° 327° (NNW) 6,925 11.8 -69.5°
Maximum altitude 01:21:03 19° 6° (N) 5,130 11.2 -66.6°
Drops below altitude 10° 01:30:41 10° 47° (NE) 4,847 11.3 -64.5°
Sets 01:35:23 0° 65° (ENE) 5,263 11.7 -63.5°
